
NO-84
1 40654U          15232.45207151  .00007862  00000-0  20225-3 0 00984
2 40654 054.9906 301.4539 0244603 048.0292 314.1094 15.15230309013918

NO-83
1 40655U          15232.42150062  .00013369  00000-0  32966-3 0 01053
2 40655 054.9926 301.2859 0241629 048.0775 314.0449 15.16161225013919

PHASE 3B (AO-10)
1 14129U 83058B   15241.19668696 -.00000053  00000-0  00000+0 0  9993
2 14129  25.9824 140.7244 6069648 127.7409   7.9360  2.05869437214264

TURKSAT-3USAT
1 39152U 13018C   15243.18173688  .00000690  00000-0  99311-4 0  9992
2 39152  97.9882 324.7642 0017367  12.3555 347.8079 14.79439375126546

AIST 1
1 39492U 13078C   15243.07082162  .00001172  00000-0  12756-3 0  9992
2 39492  82.4165  89.1523 0021344  49.3121 310.9960 14.87059885 90694

BUGSAT-1 (TITA)
1 40014U 14033E   15243.08617247  .00001544  00000-0  15072-3 0  9992
2 40014  97.9588 148.4085 0032270 342.1330  17.8748 14.93594747 65220

PEHUENSAT 1 (PO-63)
1 29712U 07001D   15242.50942438  .00004038  00000-0  28749-3 0  9996
2 29712  97.6041 263.2463 0008420  18.5117 341.6414 15.05151768468272

TABLETSAT-AURORA
1 40017U 14033H   15243.03978825  .00000825  00000-0  87866-4 0  9994
2 40017  97.9565 146.7568 0023658 338.5956  21.4272 14.91551270 65122

AISAT
1 40054U 14034B   15243.22993161  .00001273  00000-0  19395-3 0  9996
2 40054  98.2140 322.1304 0012857 351.1865   8.9116 14.75661214 62927

TRITON-1
1 39427U 13066M   15242.70652582  .00000456  00000-0  82822-4 0  9991
2 39427  97.7084 289.0501 0114127 289.4383  69.4518 14.66769919 94789

GOMX 1
1 39430U 13066Q   15243.07767047  .00001117  00000-0  21560-3 0  9995
2 39430  97.7033 280.7666 0152454 314.1404  44.7351 14.58186300 94297

ARSAT 1
1 40272U 14062B   15242.36420689 -.00000284  00000-0  00000+0 0  9994
2 40272   0.0056  77.9827 0001412  82.0744 237.4981  1.00272288  3345

COSMOS 2499
1 39765U 14028E   15241.71341760 -.00000004  00000-0 -50745-4 0  9998
2 39765  82.4323  36.5108 0227283 264.1206  93.3940 12.83482794 59394

UNISAT-6
1 40012U 14033C   15243.21817217  .00000556  00000-0  92540-4 0  9992
2 40012  97.9325 133.5779 0058071 239.9413 119.6028 14.72880410 64351

NANOSATC-BR1
1 40024U 14033Q   15243.15618128  .00001139  00000-0  13068-3 0  9993
2 40024  97.9441 143.6874 0011504 302.8083  57.2025 14.87844797 64947

METEOR-M 2
1 40069U 14037A   15242.18276604 -.00000042  00000-0  11730-5 0  9996
2 40069  98.7512 296.1168 0004843 316.8501  43.2297 14.20615272 59279

FIRST-MOVE
1 39439U 13066Z   15243.13663606  .00001240  00000-0  16693-3 0  9995
2 39439  97.7226 301.3117 0066770 254.5667 104.8163 14.79464850 95577
